Malmstrom AFB, MT

8:18 AM MDT on June 18, 2018 (GMT -0600)
Malmstrom AFB

Weather History for KGFA - June, 2018

Change the Weather History Date:

Wednesday, June 13, 2018

  Actual Average (KGTF) Record (KGTF)
Temperature  
Mean Temperature 67 °F -  
Max Temperature 82 °F 70 °F 97 °F (1918)
Min Temperature 52 °F 47 °F 32 °F (1969)
Cooling Degree Days 2    
Growing Degree Days 17 (Base 50)    
Moisture  
Dew Point 35 °F    
Average Humidity 32    
Maximum Humidity 52    
Minimum Humidity 17    
Precipitation  
Precipitation 0.00 in - - ()
Sea Level Pressure  
Sea Level Pressure 29.78 in    
Wind  
Wind Speed 10 mph (WSW)    
Max Wind Speed 21 mph    
Max Gust Speed 28 mph    
Visibility 10 miles    
Events      
Averages and records for this station are not official NWS values.
T = Trace of Precipitation, MM = Missing Value Source: NWS Daily Summary

Daily Weather History Graph

Daily Weather History Graph

Search for Another Location

Airport or City:

Astronomy

Jun. 13, 2018 Rise Set
Actual Time 5:27 AM MDT 9:22 PM MDT
Civil Twilight 4:46 AM MDT 10:03 PM MDT
Nautical Twilight 3:51 AM MDT 10:58 PM MDT
Astronomical Twilight 2:24 AM MDT 12:25 AM MDT
Moon 5:38 AM MDT (6/13) 9:17 PM MDT (6/13)
Length of Visible Light 17h 16m
Length of Day
15h 55m
Waning Crescent, 0% of the Moon is Illuminated
Jun 13
Waning Crescent
Jun 13
New
Jun 20
First Quarter
Jun 27
Full
Jul 6
Last Quarter

Hourly Weather History & Observations

Time (MDT) Temp. Dew Point Humidity Pressure Visibility Wind Dir Wind Speed Gust Speed Precip Events Conditions
12:56 AM 54.5 °F 31.8 °F 42% 29.91 in 10.0 mi SW 11.5 mph - N/A   Mostly Cloudy
1:56 AM 54.1 °F 32.2 °F 43% 29.90 in 10.0 mi SW 8.1 mph - N/A   Mostly Cloudy
2:58 AM 54.1 °F 32.2 °F 43% 29.88 in 10.0 mi SW 3.5 mph - N/A   Mostly Cloudy
3:58 AM 55.0 °F 32.0 °F 42% 29.87 in 10.0 mi SSW 9.2 mph - N/A   Mostly Cloudy
4:56 AM 53.4 °F 33.4 °F 47% 29.86 in 10.0 mi SSW 6.9 mph - N/A   Mostly Cloudy
5:56 AM 52.2 °F 33.4 °F 49% 29.86 in 10.0 mi SW 6.9 mph - N/A   Mostly Cloudy
6:56 AM 53.8 °F 36.7 °F 52% 29.86 in 10.0 mi SW 8.1 mph - N/A   Mostly Cloudy
7:56 AM 58.1 °F 34.9 °F 42% 29.86 in 10.0 mi SW 8.1 mph - N/A   Clear
8:56 AM 59.7 °F 37.8 °F 44% 29.86 in 10.0 mi SW 8.1 mph - N/A   Clear
9:56 AM 63.9 °F 36.7 °F 37% 29.83 in 10.0 mi SW 11.5 mph - N/A   Partly Cloudy
10:58 AM 71.2 °F 35.8 °F 27% 29.84 in 10.0 mi SW 10.4 mph - N/A   Scattered Clouds
11:58 AM 75.4 °F 30.7 °F 19% 29.81 in 10.0 mi WSW 15.0 mph 19.6 mph N/A   Scattered Clouds
12:58 PM 75.6 °F 33.3 °F 21% 29.79 in 10.0 mi West 4.6 mph - N/A   Mostly Cloudy
1:58 PM 78.8 °F 33.8 °F 20% 29.71 in 10.0 mi WSW 10.4 mph - N/A   Clear
2:58 PM 80.6 °F 32.4 °F 17% 29.68 in 10.0 mi SW 20.7 mph 27.6 mph N/A   Partly Cloudy
3:58 PM 81.7 °F 33.8 °F 18% 29.66 in 10.0 mi SW 16.1 mph 21.9 mph N/A   Clear
4:19 PM 82.4 °F 35.6 °F 19% 29.66 in 10.0 mi SW 15.0 mph 26.5 mph N/A   Partly Cloudy
4:58 PM 81.7 °F 35.6 °F 19% 29.70 in 10.0 mi WNW 10.4 mph - N/A   Partly Cloudy
5:58 PM 79.9 °F 31.6 °F 17% 29.69 in 10.0 mi West 11.5 mph - N/A   Clear
6:58 PM 76.8 °F 35.1 °F 22% 29.70 in 10.0 mi NNW 11.5 mph - N/A   Partly Cloudy
7:58 PM 71.6 °F 37.4 °F 29% 29.70 in 10.0 mi NNE 9.2 mph - N/A   Scattered Clouds
8:58 PM 66.7 °F 40.8 °F 39% 29.73 in 10.0 mi SSE 3.5 mph - N/A   Mostly Cloudy
9:58 PM 67.1 °F 39.6 °F 36% 29.73 in 10.0 mi NNE 9.2 mph - N/A   Overcast
10:59 PM 66.6 °F 37.0 °F 34% 29.68 in 10.0 mi NNE 8.1 mph - N/A   Overcast
11:58 PM 67.1 °F 36.7 °F 33% 29.66 in 10.0 mi NNE 4.6 mph - N/A   Mostly Cloudy